COSMOS 594

Satellite information

Favourite Embed

Satellite Type and Status

PAYLOADIN ORBIT

Key statistics

Satellite COSMOS 594 at a glance.

Uptime

19022

Days in orbit

Revolutions

≈ 12.6

Per day

Orbit

LEO

Low Earth Orbit

Inclination

74.0

Latest

Satellite identification and parameters

Extended collection of information and parameters for COSMOS 594.

Object identification

Identified? True

Debris? False

Object name: COSMOS 594

International designator: 1973-069G

Object number (NORAD): 6851

Object ID (CCSDS): 6851

Country: COMMONWEALTH OF INDEPENDENT STATES (CIS)

Current information (Y/N): Y

RCS size: MEDIUM

Orbital parameters

Period: 114.5 minutes

Inclination: 74.0012 deg

SMA: 7810.814 km

Apoapsis: 1485.509 km

Periapsis: 1379.849 km

RAAN: 227.8649 deg

Eccentricy: 0.0067637

Argument of periapsis: 335.3195 deg

Mean anomaly: 90.8702 deg

Mean motion: 12.57645795 rev/day

Mean motion (dot): -0.00000014 rev/day2

B* drag term: 0.000015628887 1/REarth

Two-line elements (TLE)

Creation date: Oct. 31, 2025, 3 a.m.

Reference frame: TEME

Reference center: EARTH

Epoch: Oct. 30, 2025, 10:18 p.m. UTC

TLE line 0: 0 COSMOS 594

TLE line 1: 1 06851U 73069G 25303.92954238 -.00000014 00000-0 15629-4 0 9993

TLE line 2: 2 06851 74.0012 227.8649 0067637 335.3195 90.8702 12.57645795390821

Live tracking on map

Real-time ground track for satellite COSMOS 594.

In-orbit conjunctions

A list of the most updated potential collisions computed for object COSMOS 594.

Target Orbit TCA Probability of collision Miss distance Type
DELTA 1 DEB SSO 2025-02-07 18:55:10 0.0001210153 273.0 (m) DEBRIS

Associated space launch

Military communications satellites

COSMOS 594 was lifted into orbit during the mission ‘Kosmos-3M | Strela-1M 49-56’, on board a Kosmos-3M space rocket.

The launch took place on Oct. 2, 1973, 9:46 p.m. from 132/2.

For more information about the launch, click the button.

Launch to space Kosmos-3M | Strela-1M 49-56
Kosmos-3M | Strela-1M 49-56

Agency: N/A

Status: Launch Successful

Launch date: Oct. 2, 1973, 9:46 p.m. UTC

Rocket: Kosmos-3M

Launch pad: 132/2

Location: Plesetsk Cosmodrome, Russian Federation

...

Latest news about this satellite

There are no fresh news available about this satellite. Check back as we update our databases every day.


Newsletter sign-up

Weekly statistics, charts and insights to help you stay on top of the space industry.